STARLINK-1355, 45563

Orbit data source: Space-Track

STARLINK-1355, 45563 is a payload satellite owned by SpaceX/Seattle (US) in LEO that was launched on Wed, 22 Apr 2020 UTC via an FALCON 9 launch vehicle from the Air Force Eastern Test Range (AFETR). Payloads include a variety of satellites, spacecraft, and rockets equipped with specific instruments for various scientific and technological missions. These include communications satellites like Starlink; space stations such as the ISS; scientific satellites like the Hubble; Earth observation satellites from companies like Planet Labs, Umbra, and HawkEye 360; GPS; miniature CubeSats for education and research; and military/defense satellites.

Loading next visibility...
STARLINK-1355 details
Identifier
45563, 2020-025AJ
Orbit
LEO
Last TLE update19 hours ago
Origin
Flag of USSpaceX/Seattle (US)
ManufacturerSpaceX/Seattle
MissionPartially operational Commercial Communications
Bus & MotorSTARLINK, Unknown motor
Mass260 kg wet, ~248 kg dry
Launch date (UTC)
2020-04-22 (5 years ago)
Launch vehicle
FALCON 9
Launch site
Air Force Eastern Test Range (AFETR)
Object type
Payload
Rocket body
Debris
Shape & HBRBox + 1 Pan, 8.86 m
Radar Cross Section13.562 m², Large (>1 m²)

Expand to show TLE details & history

TLE from 19 hours ago
0 STARLINK-1355
1 45563U 20025AJ  24360.69093560  .00001420  00000-0  48753-4 0  9993
2 45563  53.0557 252.7755 0001153  97.7332 262.3801 15.37314694258666
Epoch: 2024-12-25T16:34Z
Definitive object data (Epoch: 2024-12-25T16:34:56.835Z)
Latitude-0.00008°
Longitude-90.64242°
Altitude455.05 km
Speed7.641 km/s
True Right ascension16h 51m 06s
True Declination0° 00' 00"
Sunlit
Object was in daylight at TLE epoch
Visualization TLE readout
Latitude36.39632°
Longitude-60.89998°
Altitude456.404 km
Speed7.644 km/s
Apparent Right ascension20h 43m 16s
Apparent Declination0° 13' 54"
Sunlit
Object is in daylight
Visualization observer readout
Local Sidereal Time10:52:05
Azimuth44.635° NE
Elevation-40.659°
Doppler factor1
Orbital elements
Apogee altitude455.116 km
Perigee altitude453.54 km
Semi-major axis6,832.465 km
Eccentricity0.0001153
Inclination53.0557°
RAAN252.7755°
Arg. of periapsis97.7332°
True anomaly262.367°
Mean anomaly262.3801°
Eccentric anomaly262.37355°
Mean motion3.84306 °/min
BSTAR0.000048753
Orbital period93.68 mins
Loading maneuver chart data...
Loading historical data...
Loading historical data...
Loading historical data...
Loading historical data...
Loading historical data...
Loading historical data...
Loading historical data...

STARLINK-1355 Visibility forecast

Observer location: undefined°, undefined

Span
Click to sort rows by Start time (UTC) header in descending order
Start Az.
Max El. time (UTC)
Max El. Az.
Max El.
End time (UTC)
End Az.
6 mins2024-12-26 19:16:44.285Z209.055° SW2024-12-26 19:19:44.285Z112.719° SE37.193°2024-12-26 19:22:44.285Z59.485° ENE
4 mins2024-12-26 20:55:44.285Z301.065° NW2024-12-26 20:56:44.285Z325.04° NNW21.251°2024-12-26 20:59:44.285Z26.295° NE
5 mins2024-12-27 01:50:44.285Z334.332° NNW2024-12-27 01:52:44.285Z48.993° ENE34.607°2024-12-27 01:55:44.285Z108.161° ESE
|